Dewpoint
32 34 36 36 37 40 42 44 47 51 58 60 59 60 61 61 61 61 61 60 59 58
32 34 35 37 37 39 41 42 44 50 55 59 60 59 60 59 59 60 60 58 57 56
34 35 35 36 36 37 40 42 43 46 49 57 59 60 59 57 57 58 57 57 56 57
33 34 34 35 35 37 38 40 41 42 46 51 58 57 56 56 56 56 56 56 56 56
31 34 33 34 34 35 36 39 40 41 43 47 47 49 52 56 56 55 54 54 55 56
31 32 33 33 34 34 35 38 38 40 40 41 41 40 42 42 43 45 47 50 52 54
31 31 33 33 34 34 34 36 37 38 39 38 37 37 37 37 37 39 42 44 46 49
29 31 32 31 32 34 34 35 37 36 36 38 35 33 33 32 34 36 39 42 44 45
26 26 30 32 31 30 31 34 34 35 35 35 33 33 32 32 32 36 38 39 40 40
25 25 25 26 26 28 29 29 32 33 33 34 32 31 30 31 32 34 34 35 36 36
24 24 25 24 25 25 26 26 27 28 31 31 31 29 27 28 30 31 31 32 32 33
24 24 24 23 25 24 24 24 25 26 27 27 27 31 26 24 26 26 28 30 30 32
26 24 23 24 24 26 24 23 23 23 24 22 23 25 27 23 23 22 24 26 28 30
27 23 24 24 25 25 25 23 22 22 22 22 21 22 21 21 22 23 23 22 24 28
Wind_Speed
22 20 21 21 25 24 25 26 31 32 24 23 21 22 21 13 11 13 15 15 14 13
22 23 24 26 23 23 25 25 29 29 25 14 18 18 16 15 16 16 16 16 17 17
22 21 23 22 25 26 25 25 28 29 27 15 7 10 11 13 13 16 16 13 16 18
20 22 23 22 24 24 28 25 25 29 31 24 9 11 12 12 12 14 11 11 17 19
20 20 24 22 24 24 27 22 21 27 29 26 24 22 13 6 8 14 15 15 19 17
22 24 23 24 22 21 24 24 24 23 31 24 23 21 21 18 16 13 11 11 10 8
19 24 19 21 19 19 19 21 21 19 22 21 18 24 21 21 19 17 14 11 12 12
14 17 22 21 19 18 17 18 17 18 18 15 23 23 27 23 19 19 17 14 13 13
21 20 18 17 23 21 19 16 14 18 21 23 20 23 28 26 17 17 18 16 16 16
22 23 23 23 22 23 23 20 18 17 19 18 22 30 28 29 18 18 17 17 15 14
22 22 21 22 23 23 20 22 22 21 19 17 17 25 31 26 17 13 13 15 16 15
20 22 19 21 21 19 19 20 20 19 20 19 17 24 29 25 17 17 17 13 13 14
18 19 19 19 19 17 16 18 17 18 18 20 21 24 25 24 15 17 16 17 15 14
17 18 17 18 17 18 15 15 14 15 15 17 18 18 25 27 18 18 16 16 18 16
Wind_Direction
330 327 321 322 318 313 317 317 315 309 295 287 253 242 235 221 201 201 177 176 159 161
330 333 329 324 320 318 317 321 323 310 317 283 265 246 221 207 200 181 168 176 182 186
326 332 329 326 325 326 323 317 341 328 337 296 203 180 164 156 154 159 173 193 205 208
333 338 330 332 329 328 321 327 344 342 338 341 241 161 153 161 177 193 212 222 221 237
339 334 334 330 332 328 326 332 335 360 335 25 9 62 54 199 236 210 241 245 243 236
347 337 337 331 324 327 333 341 340 10 354 27 16 19 38 43 28 31 38 26 19 13
347 342 325 334 334 328 331 339 346 4 14 21 11 14 34 34 20 16 10 13 17 13
337 339 339 344 342 333 343 341 346 4 21 14 26 11 20 15 15 10 353 357 21 21
346 346 341 340 348 349 354 351 354 13 12 29 23 18 15 13 16 7 12 9 12 3
351 350 352 356 353 355 356 359 14 17 12 34 29 24 15 9 5 18 8 0 0 358
351 350 354 357 357 354 354 0 4 9 15 32 27 28 26 9 0 19 8 354 349 349
348 348 356 354 349 353 357 358 1 4 11 20 16 22 25 13 357 9 355 342 348 348
347 349 350 347 343 345 357 360 0 1 12 10 7 4 19 3 2 359 347 351 349 342
348 349 350 344 347 347 354 355 356 359 2 0 359 2 5 1 3 351 350 347 335 333